Вернуться в каталог

STARLINK-3273

АктивенСвязьVLEO
NORAD 50191·PAYLOAD·🇺🇸 United States

Запущен Dec 18, 2021 с Vandenberg Space Force Base

Loading…

Ближайшие Пролёты (ближайшие 24 часа)

TLE

СвежийSource: CelesTrak SupGP

Эпоха: Sep 14, 2026, 21:51 UTC

1 50191C 21125AM  26257.91090278 -.00004912  00000+0 -14517-3 0  2570
2 50191  53.1573 117.4934 0001418  84.8396 173.8863 15.34384616    11

Отслеживайте STARLINK-3273 в реальном времени с AllMySat

Download on the App Store